Volver al catálogo

STARLINK-4331

ActivoComunicacionesSSO
NORAD 53046·PAYLOAD·🇺🇸 United States

Lanzado Jul 11, 2022 desde Vandenberg Space Force Base

Loading…

Próximos Pases (próximas 24 horas)

TLE

ActualizadoSource: CelesTrak SupGP

Época: Sep 14, 2026, 20:44 UTC

1 53046C 22077D   26257.86437500  .00081632  00000+0  25349-2 0  2572
2 53046  97.2857  73.6445 0001666  93.7933 205.7887 15.33387228    10

Sigue STARLINK-4331 en tiempo real con AllMySat

Download on the App Store